DW1929 Weather Reports


Display with metric or nautical units.
time (UTC)temp
F
wind
direction
speed
MPH
gust
MPH
rain 1hr
in
rain 24hr
in
rain mn
in
humidity
%
barometer
mb
20260504045304 62 227 0.0 0.0 0.00 0.06 0.00 92 1015.3
20260504044317 62 227 0.0 0.0 0.00 0.06 0.00 92 1015.5
20260504042219 62 227 0.0 0.0 0.00 0.06 0.00 92 1015.5
20260504041218 62 227 0.0 0.0 0.00 0.06 0.00 92 1015.5
20260504040159 62 227 0.0 0.0 0.00 0.06 0.00 91 1015.7
20260504035146 62 227 0.0 0.0 0.00 0.06 0.06 92 1015.6
20260504034128 62 227 0.0 0.0 0.00 0.06 0.06 92 1015.7
20260504031954 62 227 0.0 0.0 0.00 0.09 0.06 91 1015.7
20260504030958 62 227 0.0 0.0 0.00 0.11 0.06 91 1015.8
20260504030013 62 227 0.0 0.0 0.00 0.11 0.06 91 1015.9
20260504025001 62 227 0.0 0.0 0.00 0.11 0.06 91 1015.6
20260504023929 62 227 0.0 0.0 0.00 0.11 0.06 91 1015.7
20260504022918 62 227 0.0 0.0 0.00 0.11 0.06 90 1015.5
20260504021913 63 227 0.0 0.0 0.00 0.11 0.06 90 1015.6
20260504020914 63 227 0.0 0.0 0.00 0.11 0.06 90 1015.5
20260504015928 63 227 0.0 0.0 0.00 0.11 0.06 89 1015.3
20260504014941 64 227 0.0 0.0 0.00 0.11 0.06 89 1015.3
20260504013923 65 227 0.0 0.0 0.00 0.11 0.06 87 1015.4
20260504012857 65 227 0.0 0.0 0.00 0.11 0.06 86 1015.4
20260504011850 66 227 0.0 0.0 0.00 0.11 0.06 84 1015.2
20260504010820 67 227 0.0 0.0 0.00 0.11 0.06 82 1015.0
20260504004625 67 227 0.0 0.0 0.00 0.11 0.06 82 1015.4
20260504003624 67 227 0.0 0.0 0.00 0.11 0.06 81 1015.0
20260504002554 68 227 0.0 0.0 0.00 0.11 0.06 79 1015.0
20260504001602 69 205 0.0 0.0 0.00 0.11 0.06 78 1014.7
20260504000541 69 205 0.0 1.0 0.00 0.11 0.06 77 1014.6
20260503235533 69 234 0.0 0.0 0.00 0.11 0.06 76 1014.5
20260503233422 71 207 0.0 0.0 0.00 0.11 0.06 75 1014.4
20260503232412 71 188 0.0 2.0 0.00 0.11 0.06 74 1014.5
20260503231357 71 292 0.0 2.0 0.00 0.11 0.06 73 1014.5
20260503225237 72 192 0.0 0.0 0.00 0.11 0.06 73 1014.5
20260503224205 72 238 0.0 2.0 0.00 0.11 0.06 72 1014.5
20260503223206 72 334 2.0 6.0 0.00 0.11 0.06 71 1014.6
20260503222156 73 297 1.0 5.0 0.00 0.11 0.06 70 1014.6
20260503221213 73 275 1.0 6.0 0.00 0.11 0.06 70 1014.5
20260503215026 74 5 2.0 9.0 0.00 0.11 0.06 70 1014.3
20260503214015 74 298 2.0 14.0 0.00 0.11 0.06 69 1014.4
20260503211837 74 301 2.0 9.0 0.00 0.11 0.06 69 1014.5
20260503210858 74 338 2.0 9.0 0.00 0.11 0.06 69 1014.5
20260503205843 74 317 3.0 10.0 0.00 0.12 0.06 67 1014.5
20260503204822 74 355 3.0 10.0 0.00 0.13 0.06 67 1014.8
20260503203845 75 313 3.0 9.0 0.00 0.16 0.06 66 1014.7
20260503202845 75 201 2.0 5.0 0.00 0.16 0.06 69 1014.6
20260503195608 74 128 3.0 10.0 0.00 0.16 0.06 66 1014.9
20260503194533 75 22 2.0 10.0 0.00 0.17 0.06 66 1015.2
20260503193509 75 269 2.0 8.0 0.00 0.18 0.06 65 1015.5
20260503192434 74 331 2.0 9.0 0.00 0.18 0.06 65 1015.6
20260503191436 75 344 2.0 9.0 0.00 0.19 0.06 65 1015.7
20260503190426 75 239 2.0 9.0 0.00 0.19 0.06 64 1015.6
20260503184329 75 314 3.0 11.0 0.00 0.19 0.06 66 1015.8
20260503183319 75 329 3.0 11.0 0.00 0.19 0.06 64 1015.8
20260503180027 75 232 3.0 16.0 0.00 0.19 0.06 70 1016.3
20260503175029 75 204 3.0 8.0 0.00 0.19 0.06 68 1016.3
20260503172942 74 306 4.0 11.0 0.00 0.19 0.06 68 1016.5
20260503171936 74 242 3.0 10.0 0.00 0.19 0.06 68 1016.6
20260503170925 74 182 3.0 11.0 0.00 0.19 0.06 70 1016.7
20260503150805 72 327 4.0 13.0 0.00 0.19 0.06 73 1016.3
20260503130456 64 155 2.0 5.0 0.00 0.19 0.06 94 1015.4
20260503120129 62 229 1.0 4.0 0.00 0.19 0.06 96 1014.9
20260503110107 61 213 0.0 3.0 0.00 0.19 0.06 97 1014.4
20260503081610 61 178 0.0 3.0 0.00 0.19 0.06 96 1013.1
20260503080627 62 157 1.0 5.0 0.00 0.19 0.06 96 1013.2
20260503072515 62 183 1.0 3.0 0.00 0.19 0.06 96 1013.2
20260503071519 63 140 0.0 1.0 0.00 0.19 0.06 97 1013.2
20260503070502 63 208 0.0 2.0 0.00 0.22 0.06 96 1013.0
20260503060320 64 194 0.0 1.0 0.00 0.19 0.00 96 1013.0
20260503054208 64 228 0.0 1.0 0.00 0.19 0.00 96 1013.1
20260503052054 64 170 0.0 1.0 0.00 0.19 0.00 96 1013.3
20260503051102 64 135 0.0 0.0 0.00 0.19 0.00 96 1013.3
20260503050121 64 193 0.0 4.0 0.00 0.19 0.00 96 1013.0